This demonstration page uses our WeatherBlox Daily Observations layout. Learn more.

Left ArrowRight Arrow

34.16533, -84.80231

Hourly Observations for August 27, 2017

Temp ( °F °C ) Dew Point ( °F °C ) Humidity (%) Winds ( mph kmh ) Pressure ( in mb ) Visibility ( mi km ) Precip ( " mm )
12:53 am 00:53 Cloudy 71 21.7 71 21.7 100 100 Calm 30.06 1018 10 16 0.00 0.00
1:53 am 01:53 Mostly Cloudy 70 21.1 70 21.1 100 100 Calm 30.05 1018 10 16 0.00 0.00
2:53 am 02:53 Clear 68 20 68 20 100 100 Calm 30.04 1017 9 14 0.00 0.00
3:53 am 03:53 Clear 68 20 68 20 100 100 Calm 30.04 1017 8 13 0.00 0.00
4:53 am 04:53 Clear 68 20 68 20 100 100 Calm 30.03 1017 9 14 0.00 0.00
5:53 am 05:53 Clear 67 19.4 67 19.4 100 100 Calm 30.04 1017 8 13 0.00 0.00
6:53 am 06:53 Clear 68 20 68 20 100 100 Calm 30.05 1018 9 14 0.00 0.00
7:53 am 07:53 Sunny 70 21.1 70 21.1 100 100 Calm 30.06 1018 8 13 0.00 0.00
8:53 am 08:53 Sunny 72 22.2 71 21.7 97 97 Calm 30.09 1019 10 16 0.00 0.00
9:53 am 09:53 Mostly Sunny 75 23.9 71 21.7 88 88 ENE 7 11 30.08 1019 10 16 0.00 0.00
10:44 am 10:44 Mostly Cloudy 76 24.4 70 21.1 82 82 ESE 8 13 30.09 1019 10 16 0.00 0.00
10:53 am 10:53 Cloudy 77 25 71 21.7 82 82 VRB 7 11 30.09 1019 10 16 0.00 0.00
11:14 am 11:14 Cloudy 78 25.6 70 21.1 76 76 E 8 13 30.06 1018 10 16 0.00 0.00
11:53 am 11:53 Mostly Sunny 79 26.1 69 20.6 72 72 ESE 7 11 30.08 1019 10 16 0.00 0.00
12:53 pm 12:53 Mostly Sunny 81 27.2 68 20 65 65 ESE 8 13 30.07 1018 10 16 0.00 0.00
1:53 pm 13:53 Mostly Sunny 83 28.3 67 19.4 59 59 VRB 5 7 30.04 1017 10 16 0.00 0.00
2:53 pm 14:53 Mostly Sunny 84 28.9 66 18.9 55 55 NE 10 17 30.03 1017 10 16 0.00 0.00
3:53 pm 15:53 Sunny 85 29.4 64 17.8 50 50 ESE 9 15 30.01 1016 10 16 0.00 0.00
4:53 pm 16:53 Sunny 84 28.9 65 18.3 53 53 VRB 7 11 29.99 1016 10 16 0.00 0.00
5:53 pm 17:53 Sunny 84 28.9 64 17.8 51 51 E 7 11 29.99 1016 10 16 0.00 0.00
6:53 pm 18:53 Sunny 81 27.2 65 18.3 58 58 E 3 6 29.99 1016 10 16 0.00 0.00
7:53 pm 19:53 Sunny 77 25 69 20.6 77 77 Calm 29.98 1015 10 16 0.00 0.00
8:53 pm 20:53 Clear 72 22.2 69 20.6 91 91 SSE 3 6 30.00 1016 10 16 0.00 0.00
9:53 pm 21:53 Clear 70 21.1 69 20.6 97 97 SE 3 6 30.01 1016 10 16 0.00 0.00
10:53 pm 22:53 Mostly Clear 70 21.1 68 20 93 93 Calm 30.02 1017 10 16 0.00 0.00
11:53 pm 23:53 Mostly Cloudy 74 23.3 65 18.3 74 74 Calm 30.02 1017 10 16 0.00 0.00

Powered by AerisWeather